SCP
0 0 0 0 0 0 0 0 0 0 0 0 0 0 0 0 0 0 0 0 0 0 0 0 0 0 0 0 0 0 0 0 0 0 0 0 0 0 0 0 0 0 0
0 0 0 0 0 0 0 0 0 0 0 0 0 0 0 0 0 0 0 0 0 0 0 0 0 0 0 0 0 0 0 0 0 0 0 0 0 0 0 0 0 0 0
0 0 0 0 0 0 0 0 0 0 0 0 0 0 0 0 0 0 0 0 0 0 0 0 0 0 0 0 0 0 0 0 0 0 0 0 0 0 0 0 0 0 0
0 0 0 0 0 0 0 0 0 0 0 0 0 0 0 0 0 0 0 0 0 0 0 0 0 0 0 0 0 0 0 0 0 0 0 0 0 0 0 0 0 0 0
0 0 0 0 0 0 0 0 0 0 0 0 0 0 0 0 0 0 0 0 0 0 0 0 0 0 0 0 0 0 0 0 0 0 0 0 0 0 0 0 0 0 0
0 0 1 1 0 0 0 0 0 0 0 0 0 0 0 0 0 0 0 0 0 0 0 0 0 0 0 0 0 0 0 0 0 0 0 0 0 0 0 0 0 0 0
0 0 1 1 1 0 0 0 0 0 0 0 0 0 0 0 0 0 0 0 0 0 0 0 0 0 0 0 0 0 0 0 0 0 0 0 0 0 0 0 0 0 0
0 0 1 1 1 0 0 0 0 0 0 0 0 0 0 0 0 0 0 0 0 0 0 0 0 0 0 0 0 0 0 0 0 0 0 0 0 0 0 0 0 0 0
0 1 1 1 1 0 0 0 0 0 0 0 0 0 0 0 0 0 0 0 0 0 0 0 0 0 0 0 0 0 0 0 0 0 0 0 0 0 0 0 0 0 0
0 1 1 1 1 0 0 0 0 0 0 0 0 0 0 0 0 0 0 0 0 0 0 0 0 0 0 0 0 0 0 0 0 0 0 0 0 0 0 0 0 0 0
1 1 1 1 1 0 0 0 0 0 0 0 0 0 0 0 0 0 0 0 0 0 0 0 0 0 0 0 0 0 0 0 0 0 0 0 0 0 0 0 0 0 0
1 1 1 1 1 1 0 0 0 0 0 0 0 0 0 0 0 0 0 0 0 0 0 0 0 0 0 0 0 0 0 0 0 0 0 0 0 0 0 0 0 0 0
1 1 1 1 1 1 1 1 1 0 0 0 0 0 0 0 0 0 0 0 0 0 0 0 0 0 0 0 0 0 0 0 0 0 0 0 0 0 0 0 0 0 0
1 1 1 1 1 1 1 1 1 1 0 0 0 0 0 0 0 0 0 0 0 0 0 0 0 0 0 0 0 0 0 0 0 0 0 0 0 0 0 0 0 0 0
1 1 1 1 1 1 1 1 1 1 0 0 0 0 0 0 0 0 0 0 0 0 0 0 0 0 0 0 0 0 0 0 0 0 0 0 0 0 0 0 0 0 0
1 1 1 1 1 1 1 1 1 1 1 0 0 0 0 0 0 0 0 0 0 0 0 0 0 0 0 0 0 0 0 0 0 0 0 0 0 0 0 0 0 0 0
1 1 1 1 1 1 1 1 1 1 1 0 0 0 0 0 0 0 0 0 0 0 0 0 0 0 0 0 0 0 0 0 0 0 0 0 0 0 0 0 0 0 0
1 1 1 1 1 1 1 1 1 1 1 0 0 0 0 0 0 0 0 0 0 0 0 0 0 0 0 0 0 0 0 0 0 0 0 0 0 0 0 0 0 0 0
1 1 1 1 1 1 1 1 1 1 1 0 0 0 0 0 0 0 0 0 0 0 0 0 0 0 0 0 0 0 0 0 0 0 0 0 0 0 0 0 0 0 0
1 1 1 1 1 1 1 1 1 1 1 1 0 0 0 0 0 0 0 0 0 0 0 0 0 0 0 0 0 0 0 0 0 0 0 0 0 0 0 0 0 0 0
1 1 1 1 1 1 1 1 1 1 1 0 0 0 0 0 0 0 0 0 0 0 0 0 0 0 0 0 0 0 0 0 0 0 0 0 0 0 0 0 0 0 0
1 0 0 0 1 1 1 1 1 1 1 0 0 0 0 0 0 0 0 0 0 0 0 0 0 0 0 0 0 0 0 0 0 0 0 0 0 0 0 0 0 0 0
0 0 0 0 0 1 1 1 1 1 1 0 0 0 0 0 0 0 0 0 0 0 0 0 0 0 0 0 0 0 0 0 0 0 0 0 0 0 0 0 0 0 0
0 0 0 0 0 1 1 1 1 1 1 0 0 0 0 0 0 0 0 0 0 0 0 0 0 0 0 0 0 0 0 0 0 0 0 0 0 0 0 0 0 0 0
0 0 0 0 0 1 1 1 0 0 0 0 0 0 0 0 0 0 0 0 0 0 0 0 0 0 0 0 0 0 0 0 0 0 0 0 0 0 0 0 0 0 0
0 0 0 0 1 1 0 0 0 0 0 0 0 0 0 0 0 0 0 0 0 0 0 0 0 0 0 0 0 0 0 0 0 0 0 0 0 0 0 0 0 0 0
Wind_Speed
14 16 17 14 14 13 13 13 14 14 15 14 14 13 12 11 11 10 9 8 8 8 8 8 9 9 9 10 10 11 11 11 12 13 13 13 13 13 13 13 13 14 15
18 18 18 15 15 14 14 14 14 14 14 14 13 13 12 11 10 10 9 9 8 8 8 8 9 9 10 10 11 11 11 11 11 12 13 13 13 12 11 10 10 12 14
20 19 18 16 15 15 14 14 14 14 14 14 13 12 11 10 10 9 9 9 9 9 9 9 9 9 10 10 11 11 11 11 11 10 10 10 12 12 11 12 14 14 14
20 19 18 18 16 15 15 14 14 14 14 13 13 12 11 10 10 10 9 9 9 9 9 9 9 9 9 10 10 11 11 11 10 9 7 9 10 12 12 13 13 13 13
19 18 18 19 17 16 15 14 14 14 14 13 12 12 11 10 10 10 9 9 9 9 9 9 9 9 9 10 10 11 11 10 7 5 8 8 9 11 12 12 13 13 12
19 18 20 18 17 17 16 15 14 14 13 13 12 11 11 10 9 9 9 9 9 9 9 8 8 8 8 9 10 10 10 8 8 7 7 8 9 11 12 12 12 12 12
19 17 20 18 17 17 16 15 14 14 13 12 12 11 10 10 9 9 9 9 9 9 9 8 8 8 8 8 9 9 8 4 3 7 7 8 10 10 11 11 12 11 11
18 18 19 18 17 16 16 15 14 14 13 12 11 11 10 10 9 9 9 8 8 8 8 8 7 7 7 7 8 8 7 5 6 7 6 9 10 9 10 10 11 11 11
17 17 17 17 16 16 15 14 14 13 13 12 11 11 10 9 9 8 8 8 8 7 7 7 7 7 7 7 7 8 6 3 4 5 7 8 9 9 9 9 10 10 10
14 15 15 16 15 15 14 14 13 13 12 11 10 10 9 9 9 8 8 7 7 6 6 6 6 6 6 6 7 7 7 6 4 6 5 9 9 8 9 9 9 9 9
13 13 14 14 14 13 13 14 14 13 12 11 10 10 9 8 9 8 8 7 6 5 5 5 5 5 5 7 7 7 7 4 5 4 5 12 9 8 8 8 8 8 9
16 14 12 13 12 12 10 11 9 10 10 9 8 9 6 5 4 5 9 6 5 5 5 5 4 5 6 6 8 8 4 3 4 4 8 10 8 8 8 8 7 8 8
16 14 13 12 12 11 8 8 6 5 7 7 8 7 5 5 5 5 5 6 6 6 5 6 6 4 2 1 2 3 3 3 2 3 9 9 7 8 8 8 7 8 8
15 14 13 12 11 10 8 7 7 6 6 6 7 7 6 4 3 3 2 3 3 3 2 2 2 2 2 2 2 2 3 2 2 2 7 9 7 7 8 8 8 8 8
15 15 13 12 11 9 7 7 7 7 7 6 6 6 5 4 3 3 2 2 2 2 3 3 3 3 3 3 3 3 2 1 2 2 6 8 8 7 7 8 8 8 8
14 14 12 12 12 10 8 7 6 7 5 6 6 6 5 3 3 3 3 3 2 2 2 2 3 3 3 2 3 3 3 3 3 3 4 8 8 7 7 8 8 8 8
12 12 12 12 12 11 10 9 6 6 7 6 5 5 5 4 3 3 3 4 3 3 3 3 3 3 4 4 4 3 3 2 3 3 3 4 7 9 8 8 8 8 9
12 12 12 11 12 11 9 8 5 5 6 5 5 5 5 4 4 4 3 3 3 3 3 3 4 4 3 3 3 3 3 3 4 4 4 3 3 5 9 9 8 8 9
12 12 12 12 12 10 9 7 6 5 5 5 4 4 5 4 4 4 3 2 4 4 3 4 3 3 3 3 3 3 3 3 3 4 4 4 4 4 4 8 9 7 8
11 12 13 12 12 10 8 6 6 6 5 5 4 4 5 4 5 4 3 3 4 4 3 2 2 2 2 3 3 3 3 3 3 3 4 4 4 5 5 5 7 8 9
11 11 11 12 12 10 8 8 7 7 6 5 4 5 5 5 5 4 3 4 4 3 3 4 4 5 4 3 3 4 4 4 3 3 3 3 4 4 4 4 4 4 6
12 12 11 12 12 11 8 6 5 6 5 5 4 5 5 5 5 5 3 4 4 3 4 4 4 3 3 3 3 3 4 5 5 4 3 4 3 4 5 6 4 4 4
11 12 11 12 12 11 10 7 7 6 5 5 6 5 5 5 5 3 4 3 3 4 4 4 4 5 4 4 3 3 3 2 4 5 3 3 3 3 4 3 5 4 4
11 11 12 12 11 11 11 10 11 9 8 7 6 5 6 6 6 5 5 4 3 3 3 5 4 3 4 4 4 2 3 4 2 3 5 5 4 4 2 3 4 4 4
10 11 11 12 11 11 11 11 10 8 7 6 6 7 6 6 5 5 5 4 4 3 2 1 2 4 4 4 3 3 3 2 4 3 1 3 4 4 3 4 2 3 3
9 10 10 11 11 11 11 11 10 10 9 9 8 8 7 6 6 6 6 4 4 3 3 3 2 4 3 2 3 3 3 3 3 3 2 3 3 3 3 2 3 3 3
Wind_Direction
158 147 144 149 145 140 135 132 132 132 133 133 133 133 132 131 128 124 118 112 107 101 97 95 97 99 99 102 105 108 111 113 114 112 111 110 111 113 116 122 123 109 113
150 144 148 150 147 143 138 134 132 132 132 133 132 131 131 130 127 122 116 111 106 102 99 98 99 97 99 103 105 109 112 114 113 115 118 117 114 114 116 112 99 108 115
148 144 152 151 148 144 140 138 136 134 133 133 132 131 129 128 124 119 114 109 104 101 100 99 101 99 101 104 107 109 111 113 114 125 136 125 118 117 113 107 106 115 115
149 149 153 149 149 146 144 142 139 137 135 135 134 132 129 127 123 118 113 109 106 102 100 101 102 102 103 106 108 108 109 111 121 158 137 119 121 116 115 114 115 117 116
150 150 144 151 150 148 147 144 142 140 138 137 135 131 128 126 123 118 115 109 105 102 101 100 101 105 107 110 111 109 109 112 142 166 107 111 108 118 119 118 117 117 118
151 152 145 155 152 151 149 148 145 143 141 139 136 133 132 129 123 117 113 107 103 100 98 98 100 105 111 117 120 117 116 134 187 113 114 119 114 122 122 121 121 119 118
156 153 146 155 153 153 152 151 149 147 144 141 139 136 133 128 120 116 111 108 102 99 97 95 96 102 111 119 125 125 127 173 134 112 120 114 107 122 125 123 122 121 121
158 153 145 154 155 155 154 154 153 150 146 143 140 137 133 128 123 120 115 110 104 100 98 96 93 97 104 114 127 132 141 208 128 114 116 108 107 121 124 125 124 125 124
161 153 151 158 159 158 157 157 156 152 147 144 141 137 134 131 127 123 118 114 109 104 102 98 95 93 97 110 126 137 146 248 140 119 119 109 119 126 127 128 129 131 130
163 158 156 163 159 163 161 159 158 154 149 146 144 142 139 139 137 132 142 122 117 113 108 102 97 95 98 109 126 138 157 214 146 135 120 114 129 136 137 136 134 136 135
167 164 163 162 162 166 162 156 162 157 152 155 155 151 167 169 154 160 120 120 127 124 117 110 105 107 127 131 132 149 187 202 126 119 104 114 141 146 143 141 140 141 140
172 171 168 165 164 167 163 157 165 167 160 177 158 164 177 153 151 137 120 139 139 136 144 127 126 172 211 157 147 182 189 159 133 135 111 128 150 154 150 149 150 150 146
172 171 170 167 167 169 163 162 166 166 160 170 160 165 160 166 164 164 160 161 168 179 181 153 190 197 176 117 168 170 145 161 142 133 121 145 162 164 158 158 160 157 152
174 174 173 168 170 175 170 166 169 167 165 167 157 176 169 179 178 163 178 168 178 175 163 195 184 170 163 174 183 152 162 189 154 121 126 154 168 175 170 168 170 167 163
177 176 174 173 172 171 172 179 175 169 168 162 163 173 181 183 184 174 180 193 204 165 178 193 191 170 182 185 191 169 167 153 158 159 130 160 174 181 180 176 177 176 173
180 177 174 175 175 174 175 181 175 171 167 165 169 167 187 189 182 187 190 194 201 197 184 193 176 180 197 180 187 165 185 174 164 178 157 158 174 179 183 185 186 184 184
178 177 177 177 178 179 179 180 179 175 169 173 161 161 177 190 181 199 198 201 191 176 173 204 180 188 193 186 180 175 181 182 164 183 174 166 169 177 185 190 194 194 194
176 178 180 181 178 181 179 178 176 176 165 169 163 162 174 177 189 210 205 200 181 204 199 188 207 193 189 197 179 183 164 165 168 183 186 194 191 178 178 188 195 199 200
177 175 180 182 176 178 174 175 172 166 167 168 164 168 169 182 189 210 214 173 197 204 207 213 185 216 184 193 181 175 181 176 177 184 187 194 192 204 182 169 187 201 207
178 177 182 182 177 173 167 166 162 165 170 174 171 163 174 181 187 206 195 185 213 202 198 203 167 208 203 202 201 159 182 172 190 169 198 186 188 202 203 181 187 192 201
183 178 181 182 178 175 172 171 167 171 170 174 174 167 180 185 178 207 199 173 216 199 204 197 196 182 200 193 204 184 177 184 181 180 198 206 187 196 191 192 216 206 187
187 183 180 183 180 180 175 170 169 164 170 166 166 164 181 181 183 191 200 196 194 185 194 202 218 228 187 208 242 213 194 175 194 184 187 200 203 196 191 197 204 208 238
189 185 183 183 183 179 169 159 155 152 161 164 172 172 179 181 186 193 192 214 191 215 188 205 209 223 215 199 242 264 251 208 161 165 189 190 201 208 207 183 206 197 218
187 183 180 177 178 173 169 172 172 176 176 172 172 163 170 179 182 181 186 190 206 218 175 208 201 228 232 212 189 250 312 352 285 170 184 177 188 210 215 222 195 185 208
181 177 174 173 172 173 177 177 180 180 172 161 162 158 177 170 180 178 177 179 190 204 183 218 178 238 226 237 214 202 207 223 261 274 206 177 189 193 188 212 218 208 197
168 168 168 168 169 172 177 179 185 178 170 162 169 168 182 171 177 173 176 178 191 181 171 192 203 202 244 255 260 235 226 233 237 251 250 228 211 182 188 212 223 216 216